User: anonymous   Login
Location: Darlington Observatory
(36.4817°N, 105.8156°W)
Time: 19:41:40
(UTC-06:00)
Language:

Cosmos 2278 Rocket - Orbit

View from above orbital plane
View from above orbital plane
View from above satellite
View from above satellite

Ground track
Ground track

The orbit data is extracted from the following two-line orbital elements,

1 23088U 94023B   18172.58802638 -.00000202 +00000-0 -79956-4 0  9994
2 23088 071.0000 226.7345 0005802 265.2031 094.8429 14.14671130247517
Epoch (UTC): 21 June 2018 14:06:45
Eccentricity: 0.0005802
inclination: 71.0000°
perigee height: 839 km
apogee height: 847 km
right ascension of ascending node: 226.7345°
argument of perigee: 265.2031°
revolutions per day: 14.14671130
mean anomaly at epoch: 94.8429°
orbit number at epoch: 24751

The dashed part of the orbit path shows where the satellite is in the earth's shadow,  

DLR